Regional Weather Roundup
Issued by NWS

Home | Current Version | Previous Version | Text Only | Print | Product List | Glossary On
Versions: 1 2 3 4 5 6 7 8 9 10 11 12 13 14 15 16 17 18 19 20 21 22 23 24 25 26 27 28 29 30 31 32 33 34 35 36 37 38 39 40 41 42 43 44 45 46 47 48 49 50
000
ASUS45 KBOU 191807
RWRCO

WEATHER ROUNDUP FOR COLORADO
NATIONAL WEATHER SERVICE DENVER/BOULDER CO
1200 PM MDT SAT AUG 19 2017

NOTE: "FAIR" INDICATES FEW OR NO CLOUDS BELOW 12000 FEET WITH NO
SIGNIFICANT WEATHER AND/OR OBSTRUCTIONS TO VISIBILITY.

COZ001>005-013-030-031-191900-
...NORTHWEST COLORADO...

CITY           SKY/WX    TMP DP  RH WIND       PRES   REMARKS
CRAIG          FAIR      82  27  13 NW7       30.22F
HAYDEN         FAIR      78  30  17 W9        30.26F
MEEKER         FAIR      81  29  15 W12       30.24F
RABBIT EARS PA FAIR      61  32  33 W7        30.54S
STEAMBOAT SPGS FAIR      75  31  20 CALM      30.27F
WALDEN         FAIR      75  30  19 W10G16    30.34F
$$

COZ006>008-011-191900-
...WEST CENTRAL VALLEYS...

CITY           SKY/WX    TMP DP  RH WIND       PRES   REMARKS
GRAND JUNCTION FAIR      84  35  17 VRB6      30.13F
MONTROSE       FAIR      79  45  29 W9        30.23R
EAGLE          FAIR      78  35  21 VRB3      30.25F
RIFLE          FAIR      80  34  19 CALM      30.18F
DELTA          FAIR      83  38  19 S5        30.17F
NUCLA          FAIR      82  32  16 N6        30.25F
$$

COZ017>023-064>068-191900-
...SOUTHWEST COLORADO...

CITY           SKY/WX    TMP DP  RH WIND       PRES   REMARKS
DURANGO        FAIR      80  37  21 VRB5      30.28F
CORTEZ         FAIR      87  34  15 W6        30.21F
PAGOSA SPRINGS FAIR      77  30  18 SE3       30.36S
TELLURIDE      PTSUNNY   72  24  16 W9G18     30.47F
WOLF CREEK PAS PTSUNNY   61  30  31 SW6       30.72S
$$

COZ009-010-012-014-032>034-037-058>063-191900-
...CENTRAL COLORADO...

CITY           SKY/WX    TMP DP  RH WIND       PRES   REMARKS
ASPEN          FAIR      79  32  18 N9        30.32F
BUENA VISTA    FAIR      76  35  22 SE10      30.33F
COPPER MTN     FAIR      59  28  31 W9G16     30.66S
BERTHOUD PASS  FAIR      52  46  82 NW30G43   30.67S
COTTONWOOD PAS FAIR      72  10   9 N5G17     30.49F
GUNNISON       FAIR      70  39  32 CALM      30.36F
KREMMLING      FAIR      81  34  18 SW5       30.30F
LEADVILLE      FAIR      67  25  20 W10G21    30.45F
MONARCH PASS   FAIR      57  23  26 W25G36    30.76F
SALIDA         FAIR      80  34  18 CALM      30.37F
SUNLIGHT       PTSUNNY   59  32  36 W7        30.60S
WILKERSON PASS FAIR      61  28  29 SW9       30.63S
$$

COZ069>075-191900-
...SAN LUIS VALLEY/SANGRE DE CRISTO MOUNTAINS...

CITY           SKY/WX    TMP DP  RH WIND       PRES   REMARKS
ALAMOSA        FAIR      75  39  27 W6        30.33F
DEL NORTE      FAIR      73  44  35 SE7       30.37F
LA VETA PASS   NOT AVBL
SAGUACHE       FAIR      73  43  33 S6        30.37F
$$

COZ035-036-038>040-191900-
...NORTHERN COLORADO FRONT RANGE...

CITY           SKY/WX    TMP DP  RH WIND       PRES   REMARKS
DENVER INTL AP FAIR      91  33  12 SW5       30.09F
DMNS CITY PARK   N/A     89  33  13 S8        30.07F
AURORA         MOSUNNY   88  35  15 S5        30.12F
FRONT RANGE AP FAIR      90  34  13 S3        30.11F
ERIE MUNI ARPT FAIR      92  31  11 S9        30.11F
BOULDER MUN AP FAIR      90  37  15 E6        30.07F
CENTENNIAL     FAIR      87  26  11 SW10      30.13F
BROOMFIELD     MOSUNNY   90  36  14 SE7       30.11F
FORT COLLINS   FAIR      88  45  22 SE8       30.06F HAZE
LONGMONT       FAIR      91  42  18 SE9       30.06F
$$

COZ041-046-047-076>085-087-088-191900-
...PIKES PEAK/PALMER DIVIDE AND SOUTHERN FOOTHILLS...

CITY           SKY/WX    TMP DP  RH WIND       PRES   REMARKS
COLO. SPRINGS  PTSUNNY   86  45  23 S9        30.19F
A. F. ACADEMY  FAIR      84  28  13 W17       30.20F
SCHRIEVER AFB  FAIR      83  38  19 S9        30.19F
CHEYENNE MTN   FAIR      80  40  23 E8        30.19F
ELLICOTT       NOT AVBL
FALCON         FAIR      82  28  14 W16       30.25F
FORT CARSON    FAIR      85  39  19 SE6       30.15F
LIMON          FAIR      86  45  23 NW6       30.11F
MONUMENT HILL  FAIR      79  37  22 W9        30.26F
CANON CITY     SUNNY     90  46  22 NW6       30.12F
WALSENBURG     FAIR      86  36  16 W7        30.17F
TRINIDAD       FAIR      86  45  23 E6        30.17F
$$

COZ042>045-048>051-090-091-191900-
...NORTHEAST COLORADO...

CITY           SKY/WX    TMP DP  RH WIND       PRES   REMARKS
GREELEY ARPT   FAIR      88  50  27 S5        30.05F
AKRON          FAIR      87  49  26 NW7       30.04F
BURLINGTON     FAIR      83  64  52 S13       30.04F
WRAY           NOT AVBL
YUMA           FAIR      86  32  14 S6        30.00F
STERLING       FAIR      88  59  37 S9        29.97F
HOLYOKE        FAIR      86  64  48 S13       29.97F
FORT MORGAN    FAIR      88  42  20 SW8       30.04F
$$

COZ086-089-092>099-191900-
...SOUTHEAST COLORADO...

CITY           SKY/WX    TMP DP  RH WIND       PRES   REMARKS
PUEBLO         FAIR      89  49  25 CALM      30.07F
LA JUNTA       FAIR      87  55  33 VRB5      30.05F
LAMAR          FAIR      89  59  36 VRB5      30.01F
SPRINGFIELD      N/A     89  60  37 S17G23    30.08F
$$



USA.gov is the U.S. government's official web portal to all federal, state and local government web resources and services.